This demonstration page uses our WeatherBlox Daily Observations layout. Learn more.

Left ArrowRight Arrow

38.89511, -77.03637

Hourly Observations for May 12, 2017

Temp ( °F °C ) Dew Point ( °F °C ) Humidity (%) Winds ( mph kmh ) Pressure ( in mb ) Visibility ( mi km ) Precip ( " mm )
12:52 am 00:52 Cloudy 53 11.7 48 8.9 83 83 N 3 6 30.02 1017 10 16 0.00 0.00
1:52 am 01:52 Cloudy 53 11.7 47 8.3 80 80 NNE 7 11 30.01 1016 10 16 0.00 0.00
2:52 am 02:52 Cloudy 53 11.7 48 8.9 83 83 NE 6 9 30.00 1016 10 16 0.00 0.00
3:52 am 03:52 Cloudy 53 11.7 48 8.9 83 83 NE 8 13 30.00 1016 10 16 0.00 0.00
4:52 am 04:52 Cloudy 53 11.7 49 9.4 86 86 NE 7 11 30.00 1016 10 16 0.00 0.00
5:52 am 05:52 Cloudy 53 11.7 48 8.9 83 83 NE 7 11 30.01 1016 10 16 0.00 0.00
6:52 am 06:52 Cloudy 53 11.7 49 9.4 86 86 NE 7 11 30.02 1017 10 16 0.00 0.00
7:52 am 07:52 Cloudy 54 12.2 49 9.4 83 83 ENE 6 9 30.02 1017 10 16 0.00 0.00
8:52 am 08:52 Cloudy 55 12.8 49 9.4 80 80 E 6 9 30.03 1017 10 16 0.00 0.00
9:36 am 09:36 Cloudy 56 13.3 49 9.4 77 77 E 7 11 30.03 1017 10 16 0.00 0.00
9:52 am 09:52 Cloudy 56 13.3 49 9.4 77 77 E 9 15 30.03 1017 10 16 0.00 0.00
10:36 am 10:36 Cloudy 56 13.3 49 9.4 77 77 E 9 15 30.03 1017 10 16 0.00 0.00
10:52 am 10:52 Cloudy 56 13.3 48 8.9 75 75 E 10 17 30.02 1017 10 16 0.00 0.00
11:45 am 11:45 Cloudy 58 14.4 49 9.4 72 72 E 10 17 30.03 1017 10 16 0.00 0.00
11:52 am 11:52 Cloudy 58 14.4 49 9.4 72 72 E 12 19 30.03 1017 10 16 0.00 0.00
11:59 am 11:59 Cloudy 57 13.9 48 8.9 72 72 E 8 13 30.03 1017 10 16 0.00 0.00
12:52 pm 12:52 Cloudy 58 14.4 48 8.9 70 70 SSE 8 13 30.02 1017 10 16 0.00 0.00
1:02 pm 13:02 Cloudy 59 15 49 9.4 69 69 E 10 17 30.03 1017 10 16 0.00 0.00
1:52 pm 13:52 Cloudy 58 14.4 48 8.9 70 70 ESE 10 17 30.01 1016 10 16 0.00 0.00
2:23 pm 14:23 Cloudy 58 14.4 47 8.3 67 67 ESE 12 19 30.00 1016 10 16 0.00 0.00
2:52 pm 14:52 Cloudy 58 14.4 48 8.9 70 70 ESE 10 17 29.99 1016 10 16 0.00 0.00
3:52 pm 15:52 Cloudy with Light Rain 57 13.9 48 8.9 72 72 ESE 12 19 29.99 1016 10 16 0.00 0.03
4:52 pm 16:52 Cloudy with Light Rain 56 13.3 50 10 81 81 ESE 9 15 29.99 1016 9 14 0.01 0.25
5:52 pm 17:52 Cloudy with Light Rain 54 12.2 50 10 87 87 ESE 12 19 29.99 1016 10 16 0.03 0.76
6:52 pm 18:52 Cloudy with Light Rain 53 11.7 51 10.6 93 93 E 9 15 29.98 1015 6 10 0.05 1.27
7:52 pm 19:52 Cloudy with Light Rain 52 11.1 49 9.4 89 89 E 10 17 29.98 1015 9 14 0.04 1.02
8:52 pm 20:52 Cloudy with Light Rain 52 11.1 49 9.4 89 89 E 8 13 29.98 1015 10 16 0.01 0.25
9:21 pm 21:21 Cloudy with Light Rain 52 11.1 49 9.4 89 89 E 8 13 29.97 1015 10 16 0.00 0.03
9:41 pm 21:41 Cloudy with Light Rain 51 10.6 48 8.9 89 89 E 9 15 30.00 1016 10 16 0.00 0.03
9:52 pm 21:52 Cloudy with Light Rain 51 10.6 48 8.9 89 89 ESE 9 15 29.98 1015 10 16 0.01 0.25
10:02 pm 22:02 Cloudy with Light Rain 51 10.6 48 8.9 89 89 E 9 15 29.97 1015 10 16 0.00 0.03
10:11 pm 22:11 Cloudy with Light Rain 51 10.6 48 8.9 89 89 E 9 15 29.97 1015 10 16 0.01 0.25
10:52 pm 22:52 Cloudy with Light Rain 50 10 48 8.9 93 93 E 9 15 29.96 1015 10 16 0.05 1.27
11:52 pm 23:52 Cloudy with Light Rain 50 10 48 8.9 93 93 ENE 6 9 29.95 1014 5 8 0.05 1.27

Powered by AerisWeather